QPF
0.02 0.02 0.02 0.02 0.03 0.03 0.03 0.03 0.03 0.02 0.01 0.02 0.02 0.02 0.02 0.02 0.02 0.01 0.01 0.02 0.01 0.02 0.02 0.02 0.02 0.02 0.02 0.02 0.02 0.02 0.03 0.03 0.04 0.04 0.04 0.03 0.03 0.04
0.01 0.01 0.02 0.02 0.02 0.03 0.05 0.05 0.04 0.04 0.03 0.02 0.04 0.04 0.04 0.03 0.03 0.01 0.01 0.01 0.01 0.01 0.01 0.02 0.02 0.02 0.03 0.03 0.03 0.02 0.01 0.02 0.02 0.03 0.03 0.03 0.03 0.04
0.01 0.01 0.01 0.01 0.01 0.01 0.03 0.03 0.04 0.03 0.03 0.03 0.04 0.05 0.04 0.03 0.03 0.02 0.02 0.01 0.01 0.01 0.01 0.01 0.02 0.02 0.02 0.03 0.03 0.02 0.02 0.01 0.02 0.03 0.04 0.04 0.05 0.04
0.01 0.01 0.01 0.01 0.01 0.01 0.01 0.02 0.02 0.03 0.02 0.03 0.04 0.04 0.04 0.04 0.04 0.03 0.03 0.02 0.02 0.01 0.01 0.02 0.02 0.01 0.01 0.01 0.01 0.01 0.02 0.02 0.02 0.03 0.03 0.04 0.05 0.05
0.01 0.01 0.01 0.01 0.01 0.00 0.00 0.01 0.02 0.02 0.03 0.03 0.03 0.02 0.02 0.02 0.02 0.03 0.02 0.02 0.02 0.02 0.01 0.01 0.01 0.01 0.01 0.01 0.01 0.01 0.01 0.02 0.02 0.02 0.02 0.03 0.03 0.04
0.02 0.02 0.02 0.02 0.02 0.01 0.01 0.01 0.02 0.03 0.03 0.03 0.03 0.02 0.02 0.02 0.02 0.02 0.02 0.01 0.01 0.01 0.01 0.01 0.01 0.01 0.01 0.01 0.00 0.01 0.01 0.02 0.02 0.03 0.03 0.02 0.02 0.02
0.03 0.03 0.03 0.04 0.04 0.03 0.03 0.03 0.03 0.03 0.03 0.03 0.02 0.01 0.01 0.01 0.00 0.00 0.00 0.00 0.00 0.00 0.00 0.01 0.01 0.01 0.01 0.01 0.01 0.01 0.01 0.02 0.02 0.03 0.03 0.03 0.02 0.02
0.04 0.04 0.04 0.04 0.04 0.03 0.03 0.03 0.03 0.03 0.02 0.02 0.02 0.01 0.01 0.00 0.00 0.00 0.00 0.00 0.01 0.00 0.00 0.00 0.01 0.01 0.01 0.01 0.01 0.01 0.01 0.01 0.01 0.02 0.02 0.02 0.02 0.02
0.04 0.03 0.03 0.03 0.02 0.01 0.02 0.02 0.02 0.02 0.01 0.01 0.01 0.01 0.01 0.00 0.00 0.00 0.00 0.00 0.00 0.00 0.00 0.00 0.01 0.01 0.01 0.01 0.02 0.01 0.00 0.00 0.00 0.00 0.01 0.01 0.02 0.02
0.03 0.03 0.03 0.02 0.01 0.01 0.01 0.01 0.01 0.01 0.01 0.01 0.01 0.01 0.01 0.01 0.01 0.01 0.01 0.00 0.00 0.00 0.00 0.00 0.00 0.00 0.01 0.02 0.02 0.01 0.00 0.00 0.00 0.00 0.00 0.01 0.01 0.01
0.03 0.03 0.02 0.01 0.01 0.01 0.01 0.01 0.01 0.01 0.01 0.01 0.01 0.01 0.01 0.01 0.01 0.02 0.02 0.01 0.00 0.01 0.00 0.00 0.00 0.00 0.01 0.03 0.02 0.01 0.00 0.00 0.00 0.00 0.00 0.01 0.00 0.01
0.03 0.02 0.01 0.01 0.01 0.01 0.01 0.01 0.01 0.01 0.01 0.01 0.01 0.01 0.01 0.02 0.02 0.02 0.02 0.02 0.01 0.01 0.02 0.01 0.01 0.00 0.01 0.01 0.01 0.01 0.00 0.00 0.00 0.00 0.00 0.01 0.01 0.01
0.02 0.02 0.01 0.01 0.01 0.01 0.02 0.02 0.02 0.01 0.01 0.01 0.01 0.01 0.01 0.02 0.02 0.02 0.02 0.02 0.02 0.02 0.02 0.01 0.01 0.01 0.00 0.00 0.01 0.01 0.01 0.00 0.00 0.00 0.00 0.01 0.01 0.01
0.02 0.02 0.02 0.01 0.01 0.01 0.02 0.02 0.02 0.01 0.01 0.01 0.01 0.01 0.01 0.01 0.01 0.01 0.03 0.03 0.02 0.02 0.02 0.01 0.01 0.01 0.00 0.00 0.01 0.01 0.01 0.01 0.01 0.01 0.01 0.01 0.01 0.01
0.02 0.02 0.02 0.02 0.02 0.02 0.02 0.02 0.01 0.01 0.01 0.00 0.00 0.00 0.01 0.01 0.02 0.02 0.03 0.03 0.03 0.04 0.02 0.02 0.02 0.02 0.01 0.01 0.01 0.01 0.01 0.01 0.01 0.01 0.01 0.01 0.01 0.01
0.01 0.02 0.02 0.02 0.02 0.01 0.01 0.01 0.01 0.00 0.00 0.01 0.00 0.00 0.01 0.01 0.01 0.02 0.02 0.03 0.03 0.03 0.02 0.02 0.02 0.03 0.02 0.02 0.02 0.01 0.01 0.01 0.01 0.01 0.01 0.01 0.01 0.01
0.03 0.02 0.01 0.01 0.01 0.01 0.01 0.00 0.00 0.00 0.01 0.01 0.01 0.01 0.01 0.01 0.01 0.01 0.02 0.02 0.02 0.01 0.01 0.02 0.02 0.02 0.02 0.02 0.02 0.02 0.01 0.01 0.01 0.01 0.01 0.01 0.01 0.01
0.02 0.02 0.02 0.02 0.01 0.01 0.01 0.01 0.01 0.01 0.01 0.01 0.01 0.01 0.02 0.01 0.01 0.01 0.01 0.01 0.01 0.01 0.02 0.02 0.01 0.01 0.01 0.01 0.02 0.02 0.01 0.01 0.01 0.01 0.02 0.02 0.02 0.02
0.02 0.02 0.01 0.02 0.02 0.02 0.02 0.02 0.02 0.02 0.01 0.01 0.01 0.01 0.02 0.01 0.01 0.01 0.01 0.01 0.01 0.01 0.01 0.01 0.01 0.01 0.01 0.01 0.01 0.01 0.01 0.01 0.01 0.01 0.02 0.03 0.03 0.03
0.02 0.02 0.02 0.02 0.01 0.01 0.03 0.03 0.02 0.02 0.01 0.01 0.01 0.02 0.01 0.02 0.02 0.02 0.02 0.02 0.02 0.01 0.01 0.02 0.02 0.02 0.02 0.02 0.02 0.02 0.01 0.01 0.01 0.01 0.02 0.02 0.03 0.03
0.01 0.01 0.01 0.01 0.01 0.01 0.02 0.03 0.02 0.02 0.01 0.01 0.01 0.03 0.03 0.02 0.02 0.03 0.02 0.02 0.02 0.02 0.02 0.02 0.02 0.02 0.02 0.03 0.03 0.03 0.02 0.02 0.02 0.02 0.03 0.03 0.03 0.03
0.00 0.00 0.00 0.00 0.00 0.01 0.01 0.01 0.01 0.01 0.01 0.01 0.01 0.02 0.05 0.04 0.03 0.03 0.02 0.02 0.02 0.02 0.02 0.02 0.02 0.03 0.03 0.03 0.03 0.03 0.03 0.03 0.03 0.03 0.03 0.05 0.07 0.07
0.00 0.00 0.00 0.00 0.00 0.00 0.00 0.01 0.01 0.01 0.01 0.01 0.01 0.01 0.03 0.05 0.03 0.03 0.03 0.03 0.02 0.02 0.02 0.02 0.02 0.02 0.03 0.03 0.04 0.03 0.03 0.03 0.03 0.03 0.02 0.03 0.06 0.07
MSLP
1013.96 1014.05 1014.15 1014.21 1014.20 1014.05 1013.76 1013.29 1012.68 1011.96 1011.16 1010.33 1009.54 1008.83 1008.21 1007.69 1007.27 1006.93 1006.65 1006.39 1006.14 1005.88 1005.60 1005.30 1004.99 1004.69 1004.40 1004.15 1003.95 1003.79 1003.69 1003.63 1003.61 1003.62 1003.64 1003.69 1003.74 1003.80
1013.82 1013.87 1013.94 1013.99 1013.97 1013.83 1013.56 1013.15 1012.60 1011.93 1011.18 1010.40 1009.63 1008.91 1008.25 1007.68 1007.20 1006.78 1006.43 1006.11 1005.82 1005.54 1005.27 1004.99 1004.72 1004.46 1004.22 1003.99 1003.79 1003.62 1003.46 1003.33 1003.21 1003.11 1003.02 1002.94 1002.87 1002.82
1013.71 1013.72 1013.75 1013.76 1013.71 1013.59 1013.35 1012.99 1012.52 1011.94 1011.28 1010.57 1009.85 1009.15 1008.48 1007.86 1007.31 1006.81 1006.37 1005.97 1005.61 1005.29 1004.99 1004.72 1004.48 1004.25 1004.04 1003.84 1003.66 1003.47 1003.28 1003.09 1002.90 1002.69 1002.49 1002.29 1002.11 1001.94
1013.66 1013.62 1013.59 1013.55 1013.48 1013.35 1013.14 1012.83 1012.44 1011.95 1011.40 1010.79 1010.14 1009.48 1008.82 1008.17 1007.56 1006.98 1006.44 1005.95 1005.51 1005.13 1004.80 1004.51 1004.27 1004.06 1003.87 1003.70 1003.52 1003.33 1003.12 1002.89 1002.63 1002.34 1002.05 1001.74 1001.45 1001.18
1013.65 1013.56 1013.48 1013.38 1013.27 1013.12 1012.92 1012.66 1012.33 1011.94 1011.49 1010.97 1010.41 1009.81 1009.17 1008.52 1007.87 1007.23 1006.61 1006.03 1005.52 1005.06 1004.68 1004.36 1004.10 1003.88 1003.70 1003.53 1003.36 1003.16 1002.93 1002.67 1002.36 1002.02 1001.66 1001.28 1000.90 1000.54
1013.67 1013.53 1013.38 1013.23 1013.06 1012.88 1012.67 1012.43 1012.16 1011.84 1011.48 1011.06 1010.59 1010.05 1009.46 1008.83 1008.16 1007.48 1006.81 1006.17 1005.59 1005.07 1004.62 1004.25 1003.95 1003.71 1003.51 1003.33 1003.14 1002.93 1002.68 1002.39 1002.06 1001.69 1001.28 1000.85 1000.42 999.98
1013.66 1013.47 1013.27 1013.06 1012.83 1012.60 1012.37 1012.14 1011.89 1011.63 1011.34 1011.00 1010.60 1010.14 1009.61 1009.02 1008.37 1007.69 1007.00 1006.32 1005.69 1005.11 1004.61 1004.19 1003.84 1003.55 1003.30 1003.07 1002.85 1002.61 1002.34 1002.03 1001.68 1001.30 1000.87 1000.43 999.97 999.49
1013.59 1013.37 1013.12 1012.85 1012.57 1012.30 1012.03 1011.78 1011.54 1011.31 1011.06 1010.78 1010.46 1010.07 1009.61 1009.08 1008.48 1007.83 1007.15 1006.47 1005.81 1005.20 1004.65 1004.17 1003.75 1003.40 1003.08 1002.79 1002.51 1002.23 1001.92 1001.59 1001.23 1000.85 1000.43 999.99 999.52 999.04
1013.44 1013.20 1012.92 1012.61 1012.29 1011.97 1011.67 1011.39 1011.15 1010.92 1010.70 1010.47 1010.20 1009.88 1009.49 1009.03 1008.49 1007.89 1007.26 1006.60 1005.95 1005.32 1004.74 1004.21 1003.73 1003.30 1002.91 1002.54 1002.19 1001.84 1001.49 1001.13 1000.76 1000.38 999.97 999.54 999.10 998.62
1013.24 1012.99 1012.70 1012.36 1012.02 1011.66 1011.34 1011.04 1010.78 1010.55 1010.34 1010.14 1009.91 1009.65 1009.32 1008.93 1008.47 1007.94 1007.37 1006.76 1006.13 1005.52 1004.92 1004.36 1003.83 1003.33 1002.85 1002.40 1001.97 1001.55 1001.14 1000.74 1000.35 999.96 999.56 999.15 998.72 998.26
1013.01 1012.77 1012.48 1012.15 1011.80 1011.44 1011.10 1010.78 1010.51 1010.28 1010.07 1009.89 1009.69 1009.47 1009.20 1008.87 1008.48 1008.03 1007.52 1006.98 1006.40 1005.81 1005.22 1004.64 1004.07 1003.52 1002.98 1002.45 1001.94 1001.45 1000.98 1000.53 1000.09 999.68 999.28 998.87 998.45 998.00
1012.80 1012.58 1012.31 1012.00 1011.67 1011.33 1010.99 1010.68 1010.41 1010.18 1009.97 1009.79 1009.61 1009.42 1009.19 1008.91 1008.59 1008.20 1007.77 1007.29 1006.77 1006.22 1005.66 1005.09 1004.50 1003.91 1003.33 1002.74 1002.17 1001.61 1001.07 1000.56 1000.08 999.63 999.19 998.77 998.35 997.90
1012.64 1012.44 1012.21 1011.94 1011.64 1011.33 1011.03 1010.74 1010.48 1010.25 1010.05 1009.87 1009.70 1009.53 1009.32 1009.09 1008.81 1008.48 1008.11 1007.69 1007.23 1006.74 1006.22 1005.67 1005.10 1004.50 1003.89 1003.27 1002.65 1002.03 1001.44 1000.87 1000.33 999.83 999.35 998.89 998.44 997.97
1012.50 1012.34 1012.15 1011.92 1011.68 1011.42 1011.16 1010.91 1010.68 1010.47 1010.29 1010.11 1009.95 1009.78 1009.59 1009.38 1009.14 1008.85 1008.53 1008.17 1007.77 1007.33 1006.86 1006.35 1005.80 1005.22 1004.62 1003.98 1003.34 1002.69 1002.04 1001.42 1000.82 1000.26 999.72 999.21 998.71 998.21
1012.37 1012.24 1012.10 1011.93 1011.74 1011.54 1011.34 1011.14 1010.95 1010.77 1010.61 1010.45 1010.29 1010.13 1009.95 1009.75 1009.53 1009.27 1008.98 1008.66 1008.31 1007.93 1007.50 1007.04 1006.54 1005.99 1005.40 1004.78 1004.13 1003.46 1002.78 1002.12 1001.47 1000.84 1000.25 999.67 999.12 998.58
1012.22 1012.12 1012.01 1011.90 1011.77 1011.64 1011.50 1011.35 1011.22 1011.08 1010.94 1010.80 1010.66 1010.51 1010.33 1010.14 1009.93 1009.69 1009.42 1009.13 1008.81 1008.47 1008.08 1007.66 1007.20 1006.69 1006.14 1005.53 1004.89 1004.22 1003.54 1002.84 1002.15 1001.48 1000.83 1000.20 999.59 999.00
1012.00 1011.92 1011.86 1011.79 1011.72 1011.65 1011.57 1011.49 1011.41 1011.32 1011.22 1011.11 1010.99 1010.85 1010.69 1010.50 1010.29 1010.06 1009.80 1009.53 1009.22 1008.90 1008.54 1008.15 1007.72 1007.24 1006.71 1006.14 1005.51 1004.86 1004.17 1003.47 1002.76 1002.06 1001.37 1000.70 1000.05 999.43
1011.71 1011.66 1011.63 1011.61 1011.59 1011.58 1011.56 1011.54 1011.51 1011.47 1011.41 1011.34 1011.25 1011.13 1010.98 1010.80 1010.59 1010.36 1010.11 1009.83 1009.53 1009.20 1008.85 1008.47 1008.05 1007.59 1007.08 1006.52 1005.92 1005.28 1004.61 1003.91 1003.20 1002.50 1001.79 1001.11 1000.44 999.80
1011.38 1011.36 1011.36 1011.38 1011.41 1011.44 1011.48 1011.51 1011.53 1011.54 1011.54 1011.50 1011.44 1011.34 1011.21 1011.04 1010.84 1010.60 1010.34 1010.05 1009.73 1009.40 1009.03 1008.64 1008.21 1007.75 1007.25 1006.70 1006.11 1005.49 1004.84 1004.16 1003.47 1002.78 1002.09 1001.41 1000.74 1000.10
1011.04 1011.06 1011.10 1011.15 1011.22 1011.30 1011.38 1011.46 1011.53 1011.59 1011.62 1011.62 1011.59 1011.52 1011.40 1011.24 1011.04 1010.80 1010.52 1010.21 1009.88 1009.51 1009.12 1008.71 1008.26 1007.78 1007.27 1006.73 1006.15 1005.54 1004.91 1004.26 1003.60 1002.93 1002.27 1001.62 1000.97 1000.34
1010.75 1010.81 1010.88 1010.97 1011.08 1011.20 1011.32 1011.43 1011.54 1011.63 1011.70 1011.74 1011.73 1011.68 1011.58 1011.42 1011.22 1010.97 1010.68 1010.35 1009.99 1009.60 1009.18 1008.74 1008.27 1007.77 1007.25 1006.69 1006.12 1005.52 1004.90 1004.28 1003.65 1003.02 1002.39 1001.77 1001.15 1000.54
1010.54 1010.63 1010.74 1010.87 1011.01 1011.16 1011.31 1011.46 1011.60 1011.71 1011.80 1011.86 1011.87 1011.83 1011.74 1011.59 1011.38 1011.13 1010.83 1010.49 1010.11 1009.70 1009.26 1008.80 1008.31 1007.80 1007.26 1006.70 1006.12 1005.53 1004.93 1004.32 1003.71 1003.11 1002.51 1001.91 1001.32 1000.73
1010.40 1010.52 1010.66 1010.82 1010.99 1011.17 1011.35 1011.52 1011.68 1011.82 1011.92 1011.99 1012.00 1011.97 1011.87 1011.72 1011.52 1011.26 1010.96 1010.62 1010.24 1009.83 1009.39 1008.92 1008.43 1007.91 1007.38 1006.82 1006.24 1005.65 1005.05 1004.44 1003.84 1003.24 1002.65 1002.07 1001.49 1000.90
Thickness
5649 5647 5646 5644 5643 5640 5638 5636 5634 5632 5633 5634 5635 5636 5635 5634 5632 5631 5630 5629 5628 5627 5626 5624 5623 5622 5622 5621 5620 5619 5619 5619 5620 5621 5622 5624 5625 5627
5644 5642 5641 5639 5637 5635 5633 5631 5629 5627 5626 5627 5627 5628 5627 5626 5625 5623 5622 5621 5620 5619 5618 5617 5616 5615 5614 5613 5612 5611 5611 5611 5612 5613 5615 5616 5618 5620
5640 5638 5636 5635 5633 5631 5629 5626 5624 5622 5621 5621 5620 5620 5619 5618 5617 5615 5614 5613 5612 5611 5610 5609 5608 5607 5606 5605 5605 5603 5603 5603 5604 5605 5607 5609 5610 5612
5637 5635 5633 5632 5629 5627 5625 5622 5620 5617 5615 5614 5614 5613 5612 5611 5609 5607 5606 5605 5603 5603 5602 5601 5600 5599 5598 5597 5596 5595 5595 5595 5596 5597 5599 5601 5603 5604
5634 5632 5630 5628 5626 5624 5621 5619 5616 5614 5610 5608 5607 5605 5604 5603 5601 5600 5598 5596 5596 5595 5594 5593 5592 5591 5590 5589 5588 5587 5587 5588 5588 5589 5590 5591 5594 5595
5631 5630 5628 5626 5624 5622 5619 5616 5613 5609 5606 5603 5601 5600 5597 5595 5593 5591 5590 5589 5588 5588 5587 5586 5584 5583 5582 5581 5581 5580 5580 5579 5580 5581 5582 5583 5585 5586
5628 5627 5626 5624 5622 5619 5616 5613 5609 5606 5603 5599 5597 5594 5592 5589 5587 5584 5582 5581 5581 5580 5579 5578 5577 5575 5574 5574 5574 5573 5573 5572 5573 5573 5574 5575 5576 5577
5625 5624 5623 5621 5619 5616 5613 5611 5608 5604 5600 5596 5593 5590 5587 5584 5581 5577 5575 5574 5574 5573 5570 5570 5569 5568 5567 5567 5567 5567 5566 5565 5565 5565 5566 5566 5567 5568
5622 5620 5620 5618 5615 5612 5610 5607 5604 5601 5598 5594 5590 5586 5583 5580 5576 5572 5569 5567 5566 5566 5563 5564 5563 5562 5561 5561 5560 5560 5559 5559 5558 5558 5558 5558 5559 5560
5619 5617 5616 5614 5611 5608 5605 5603 5600 5597 5594 5590 5587 5583 5580 5576 5572 5568 5564 5562 5560 5559 5557 5557 5557 5556 5555 5554 5554 5553 5552 5552 5551 5551 5550 5550 5550 5551
5617 5615 5613 5610 5608 5604 5601 5597 5595 5592 5589 5586 5583 5579 5576 5573 5568 5564 5561 5558 5558 5557 5553 5552 5552 5550 5549 5548 5547 5546 5545 5544 5543 5543 5543 5543 5543 5543
5615 5613 5610 5607 5604 5600 5596 5593 5590 5588 5584 5582 5578 5575 5572 5569 5565 5561 5558 5555 5553 5553 5550 5547 5546 5544 5544 5543 5540 5539 5537 5537 5536 5535 5535 5535 5534 5535
5612 5609 5607 5603 5600 5596 5593 5589 5586 5583 5580 5577 5574 5571 5568 5566 5562 5558 5554 5551 5550 5549 5547 5542 5541 5538 5536 5536 5535 5532 5531 5529 5529 5528 5528 5527 5527 5527
5608 5606 5603 5600 5596 5593 5589 5586 5582 5578 5575 5572 5570 5567 5564 5562 5559 5556 5552 5549 5547 5545 5542 5538 5536 5534 5532 5530 5529 5527 5524 5522 5521 5521 5521 5521 5521 5521
5605 5602 5599 5596 5593 5590 5586 5583 5579 5576 5572 5569 5567 5564 5561 5558 5556 5553 5550 5547 5544 5542 5539 5536 5533 5530 5527 5525 5523 5521 5519 5517 5516 5515 5515 5515 5515 5516
5601 5598 5595 5593 5590 5586 5583 5580 5577 5573 5570 5567 5564 5561 5558 5555 5552 5549 5547 5544 5541 5539 5536 5533 5530 5527 5524 5521 5518 5516 5514 5512 5512 5510 5510 5510 5510 5510
5597 5594 5592 5589 5587 5584 5581 5577 5574 5571 5568 5565 5562 5559 5556 5553 5550 5546 5543 5540 5537 5535 5533 5530 5526 5523 5520 5517 5516 5514 5512 5510 5508 5507 5505 5507 5507 5507
5593 5591 5589 5586 5584 5581 5578 5575 5572 5569 5566 5563 5560 5557 5554 5551 5547 5543 5540 5537 5534 5532 5529 5527 5523 5521 5519 5517 5512 5511 5509 5507 5505 5504 5503 5503 5505 5504
5590 5588 5586 5584 5581 5578 5575 5573 5570 5568 5564 5561 5558 5555 5551 5548 5544 5541 5537 5534 5532 5529 5526 5523 5520 5518 5517 5516 5514 5508 5506 5505 5503 5502 5501 5500 5501 5501
5588 5586 5584 5581 5578 5575 5573 5570 5568 5565 5562 5559 5555 5552 5548 5545 5542 5538 5535 5532 5529 5527 5524 5522 5518 5516 5513 5511 5509 5507 5504 5502 5501 5500 5499 5498 5497 5496
5586 5584 5582 5579 5577 5574 5571 5568 5565 5562 5559 5556 5553 5549 5545 5542 5539 5536 5532 5528 5526 5524 5522 5520 5516 5512 5509 5507 5506 5506 5504 5501 5498 5497 5495 5495 5494 5493
5584 5582 5580 5577 5575 5572 5569 5566 5563 5560 5556 5553 5550 5546 5543 5539 5536 5532 5529 5527 5525 5522 5520 5517 5514 5511 5509 5507 5506 5504 5502 5500 5497 5494 5492 5490 5489 5490
5583 5581 5579 5576 5574 5570 5567 5564 5561 5558 5554 5551 5548 5544 5541 5537 5534 5530 5527 5525 5522 5520 5518 5515 5513 5510 5507 5504 5502 5501 5500 5498 5496 5493 5491 5488 5486 5485